period_start,C,m1,H,J0,J1,J2,J3,J4,J5,JA,JB,JC,JD,JJ,JK,JN,#
2017-09-26 00:04:23,0.00,0.08,0.00,21.66,26.70,29.80,14.04,41.18,1017.10,2036.00,3546.00,3075.02,3520.96,599.91,598.89,14.32,0000 0000 0000 0000 000000
2017-09-26 00:09:24,0.01,0.08,0.00,21.67,26.70,29.81,13.95,41.27,1017.10,2036.00,3545.95,3075.00,3520.68,599.61,598.52,14.37,0000 0000 0000 0000 000000
2017-09-26 00:14:25,0.01,0.08,0.00,21.64,26.71,29.82,13.95,41.22,1017.09,2036.00,3545.48,3075.00,3520.11,599.87,598.92,14.42,0000 0000 0000 0000 000000
2017-09-26 00:19:26,0.00,0.08,0.00,21.74,26.72,29.83,13.95,41.17,1017.10,2036.00,3545.01,3074.95,3520.00,600.06,599.08,14.47,0000 0000 0000 0000 000000
2017-09-26 00:24:27,0.01,0.08,0.00,21.72,26.72,29.82,14.02,41.20,1017.10,2036.00,3544.88,3074.63,3520.00,600.19,599.10,14.52,0000 0000 0000 0000 000000
2017-09-26 00:29:29,0.02,0.08,0.00,21.68,26.72,29.84,14.02,41.26,1017.10,2036.00,3544.15,3074.07,3519.73,600.04,599.03,14.57,0000 0000 0000 0000 000000
2017-09-26 00:34:30,0.05,0.08,0.00,21.69,26.72,29.84,13.99,41.36,1017.10,2035.99,3543.20,3073.64,3518.90,599.96,598.90,14.62,0000 0000 0000 0000 000000
2017-09-26 00:39:31,0.07,0.08,0.00,21.71,26.73,29.83,13.93,41.33,1017.10,2035.99,3541.38,3072.58,3517.85,599.84,598.78,14.67,0000 0000 0000 0000 000000
2017-09-26 00:44:33,0.02,0.09,0.00,21.69,26.74,29.83,14.02,41.39,1017.10,2035.99,3540.43,3072.01,3517.06,600.11,599.09,14.72,0000 0000 0000 0000 000000
2017-09-26 00:49:34,0.00,0.09,0.00,21.68,26.75,29.83,13.98,41.33,1017.10,2035.99,3540.01,3071.98,3517.00,599.81,598.62,14.77,0000 0000 0000 0000 000000
2017-09-26 00:54:35,0.01,0.09,0.00,21.68,26.75,29.84,13.96,41.24,1017.10,2035.99,3539.85,3071.82,3516.92,599.83,598.91,14.82,0000 0000 0000 0000 000000
2017-09-26 00:59:37,0.03,0.09,0.00,21.70,26.75,29.83,14.07,41.26,1017.10,2035.98,3539.12,3071.13,3516.26,599.92,598.90,14.87,0000 0000 0000 0000 000000
2017-09-26 01:04:38,0.00,0.09,0.00,21.69,26.75,29.84,13.99,41.18,1017.09,2035.98,3539.00,3071.01,3516.01,599.94,598.94,14.92,0000 0000 0000 0000 000000
2017-09-26 01:09:39,0.00,0.09,0.00,21.69,26.75,29.84,13.99,41.28,1017.10,2035.97,3538.89,3071.00,3516.00,600.03,599.09,14.97,0000 0000 0000 0000 000000
2017-09-26 01:14:40,0.01,0.09,0.00,21.71,26.75,29.85,13.95,41.24,1017.10,2035.93,3538.27,3070.99,3515.94,599.87,598.82,15.02,0000 0000 0000 0000 000000
2017-09-26 01:19:41,0.02,0.09,0.00,21.70,26.76,29.85,13.99,41.36,1017.10,2035.92,3537.98,3070.74,3515.21,599.66,598.51,15.07,0000 0000 0000 0000 000000
2017-09-26 01:24:42,0.02,0.09,0.00,21.69,26.77,29.85,13.93,41.38,1017.10,2035.90,3537.37,3070.10,3515.01,600.07,598.98,15.12,0000 0000 0000 0000 000000
2017-09-26 01:29:44,0.01,0.09,0.00,21.70,26.77,29.87,13.96,41.26,1017.10,2035.93,3537.03,3070.01,3515.00,599.79,598.72,15.17,0000 0000 0000 0000 000000
2017-09-26 01:34:45,-0.00,0.09,0.00,21.82,26.77,29.86,14.00,41.31,1017.11,2035.90,3537.00,3070.00,3514.95,600.10,598.78,15.22,0000 0000 0000 0000 000000
2017-09-26 01:39:46,0.00,0.09,0.00,22.10,26.78,29.86,13.99,41.33,1017.11,2035.74,3536.72,3069.96,3514.30,600.35,598.53,15.27,0000 0000 0000 0000 000000
2017-09-26 01:44:48,0.01,0.09,0.00,22.69,26.81,29.87,13.92,41.26,1017.11,2035.48,3536.03,3069.29,3514.00,600.40,597.35,15.32,0000 0000 0000 0000 000000
2017-09-26 01:49:49,-0.01,0.09,0.00,22.85,26.82,29.85,13.94,41.35,1017.11,2035.14,3535.88,3069.01,3513.67,600.54,597.11,15.37,0000 0000 0000 0000 000000
2017-09-26 01:54:50,0.01,0.09,0.00,23.18,26.85,29.88,13.89,41.19,1017.11,2035.05,3535.08,3068.98,3513.03,600.16,596.03,15.42,0000 0000 0000 0000 000000
2017-09-26 01:59:51,0.01,0.09,0.00,23.38,26.87,29.97,13.75,41.10,1017.11,2035.03,3534.97,3068.69,3512.99,599.87,595.55,15.47,0000 0000 0000 0000 000000
2017-09-26 02:04:53,0.03,0.10,0.00,23.51,26.89,30.09,13.84,41.09,1017.11,2035.01,3534.20,3068.04,3512.63,599.76,595.12,15.52,0000 0000 0000 0000 000000
2017-09-26 02:09:54,0.00,0.10,0.00,23.60,26.90,30.00,13.82,41.14,1017.11,2035.00,3533.99,3068.00,3512.05,599.88,595.10,15.57,0000 0000 0000 0000 000000
2017-09-26 02:14:55,0.01,0.10,0.00,23.71,26.90,29.84,13.80,41.02,1017.11,2035.00,3533.43,3067.93,3511.99,599.89,594.93,15.62,0000 0000 0000 0000 000000
2017-09-26 02:19:56,0.01,0.10,0.00,23.80,26.90,29.85,13.80,40.97,1017.11,2035.00,3533.01,3067.58,3511.90,600.05,594.76,15.67,0000 0000 0000 0000 000000
2017-09-26 02:24:58,0.02,0.10,0.00,23.83,26.90,29.84,13.80,40.92,1017.11,2035.00,3532.97,3067.06,3511.23,599.99,594.63,15.72,0000 0000 0000 0000 000000
2017-09-26 02:29:59,0.01,0.10,0.00,23.87,26.90,29.80,13.87,40.94,1017.11,2035.00,3532.26,3067.00,3511.01,600.46,594.97,15.77,0000 0000 0000 0000 000000
2017-09-26 02:35:00,0.00,0.10,0.00,23.95,26.89,29.70,13.78,40.81,1017.11,2035.00,3532.00,3067.00,3510.99,600.05,594.52,15.82,0000 0000 0000 0000 000000
2017-09-26 02:40:01,0.00,0.10,0.00,23.88,26.87,29.66,13.87,41.04,1017.11,2035.00,3531.98,3066.97,3510.96,600.50,595.03,15.87,0000 0000 0000 0000 000000
2017-09-26 02:45:02,0.01,0.10,0.00,23.70,26.85,29.57,13.78,40.94,1017.11,2035.00,3531.58,3066.92,3510.72,600.05,594.95,15.92,0000 0000 0000 0000 000000
2017-09-26 02:50:04,0.03,0.10,0.00,23.36,26.83,29.51,13.80,41.10,1017.11,2034.99,3531.02,3066.30,3510.10,599.58,595.17,15.97,0000 0000 0000 0000 000000
2017-09-26 02:55:05,0.01,0.10,0.00,23.01,26.81,29.53,13.90,41.25,1017.12,2034.99,3530.63,3066.02,3510.00,600.00,596.31,16.02,0000 0000 0000 0000 000000
2017-09-26 03:00:06,0.05,0.10,0.00,22.83,26.80,29.58,13.97,41.28,1017.14,2034.99,3529.43,3065.61,3509.42,600.02,596.64,16.07,0000 0000 0000 0000 000000
2017-09-26 03:05:08,0.03,0.11,0.00,22.71,26.78,29.66,14.00,41.33,1017.24,2034.99,3528.04,3064.97,3508.45,600.38,597.36,16.12,0000 0000 0000 0000 000000
2017-09-26 03:10:09,0.03,0.11,0.00,22.92,26.77,29.74,13.86,41.16,1017.24,2034.99,3527.24,3064.62,3508.02,600.09,596.64,16.17,0000 0000 0000 0000 000000
2017-09-26 03:15:10,0.01,0.11,0.00,22.97,26.77,29.77,13.93,41.18,1017.21,2034.99,3526.99,3064.08,3507.99,600.05,596.50,16.22,0000 0000 0000 0000 000000
2017-09-26 03:20:11,0.02,0.11,0.00,22.97,26.77,29.80,13.85,41.13,1017.29,2035.00,3526.19,3064.00,3507.71,599.95,596.45,16.27,0000 0000 0000 0000 000000
2017-09-26 03:25:13,0.01,0.11,0.00,23.16,26.77,29.82,13.82,41.04,1017.39,2035.00,3525.93,3063.97,3507.07,599.75,595.87,16.32,0000 0000 0000 0000 000000
2017-09-26 03:30:14,0.03,0.11,0.00,23.34,26.79,29.81,13.81,41.23,1017.45,2035.00,3525.10,3063.46,3506.98,600.04,595.87,16.37,0000 0000 0000 0000 000000
2017-09-26 03:35:16,0.02,0.11,0.00,23.43,26.80,29.89,13.78,41.33,1017.54,2035.00,3524.69,3063.01,3506.30,599.82,595.61,16.42,0000 0000 0000 0000 000000
2017-09-26 03:40:17,0.01,0.12,0.00,23.46,26.81,29.91,13.89,41.26,1017.57,2035.00,3524.06,3062.99,3506.02,600.42,596.03,16.47,0000 0000 0000 0000 000000
2017-09-26 03:45:18,0.00,0.12,0.00,23.19,26.82,29.88,13.84,41.27,1017.59,2035.00,3523.99,3062.96,3506.00,600.34,596.55,16.52,0000 0000 0000 0000 000000
2017-09-26 03:50:19,0.03,0.12,0.00,22.86,26.82,29.88,13.95,41.34,1017.59,2035.00,3523.41,3062.46,3505.95,599.86,596.68,16.57,0000 0000 0000 0000 000000
2017-09-26 03:55:21,0.02,0.12,0.00,22.87,26.82,29.90,13.90,41.21,1017.59,2035.00,3522.99,3062.03,3505.25,600.15,596.95,16.62,0000 0000 0000 0000 000000
2017-09-26 04:00:22,0.01,0.12,0.00,22.94,26.82,29.91,13.90,41.15,1017.59,2035.00,3522.27,3062.00,3505.00,599.93,596.68,16.68,0000 0000 0000 0000 000000
2017-09-26 04:05:23,0.00,0.12,0.00,23.05,26.82,29.90,13.79,41.16,1017.59,2035.00,3522.00,3061.87,3504.95,599.81,596.34,16.73,0000 0000 0000 0000 000000
2017-09-26 04:10:25,0.04,0.12,0.00,23.00,26.82,29.91,13.84,41.17,1017.59,2035.00,3521.52,3061.29,3504.38,599.67,596.29,16.78,0000 0000 0000 0000 000000
2017-09-26 04:15:26,0.00,0.12,0.00,23.14,26.82,29.90,13.89,41.20,1017.59,2035.00,3521.03,3061.01,3504.01,600.17,596.45,16.83,0000 0000 0000 0000 000000
2017-09-26 04:20:27,0.00,0.12,0.00,23.30,26.84,29.95,13.82,41.13,1017.59,2035.00,3520.91,3061.00,3503.99,599.44,595.46,16.88,0000 0000 0000 0000 000000
2017-09-26 04:25:29,0.01,0.12,0.00,23.41,26.85,29.96,13.86,41.13,1017.59,2035.00,3520.25,3060.95,3503.76,600.02,595.79,16.93,0000 0000 0000 0000 000000
2017-09-26 04:30:30,0.02,0.12,0.00,23.34,26.87,29.93,13.81,41.10,1017.59,2035.00,3520.02,3060.63,3503.26,599.66,595.54,16.98,0000 0000 0000 0000 000000
2017-09-26 04:35:31,0.01,0.12,0.00,23.21,26.87,29.93,13.81,41.36,1017.59,2035.00,3520.00,3060.32,3503.08,599.74,595.88,17.03,0000 0000 0000 0000 000000
2017-09-26 04:40:32,0.00,0.12,0.00,22.99,26.87,29.96,13.92,41.23,1017.59,2034.99,3519.95,3060.02,3503.00,600.28,596.82,17.08,0000 0000 0000 0000 000000
2017-09-26 04:45:33,0.01,0.12,0.00,23.01,26.87,29.96,13.87,41.23,1017.59,2034.98,3519.30,3060.00,3502.97,600.27,596.85,17.13,0000 0000 0000 0000 000000
2017-09-26 04:50:35,0.00,0.13,0.00,22.98,26.87,29.96,13.92,41.17,1017.61,2034.98,3519.01,3060.00,3502.93,600.21,596.88,17.18,0000 0000 0000 0000 000000
2017-09-26 04:55:36,0.01,0.13,0.00,22.98,26.87,29.98,13.90,41.10,1017.61,2034.99,3519.00,3059.97,3502.45,599.99,596.73,17.23,0000 0000 0000 0000 000000
2017-09-26 05:00:37,0.00,0.13,0.00,23.00,26.87,29.99,13.92,41.06,1017.62,2034.99,3519.00,3059.96,3502.20,600.19,596.84,17.28,0000 0000 0000 0000 000000
2017-09-26 05:05:39,0.01,0.13,0.00,23.01,26.87,30.00,13.91,41.13,1017.65,2034.98,3518.74,3059.79,3502.02,600.13,596.76,17.33,0000 0000 0000 0000 000000
2017-09-26 05:10:40,0.02,0.13,0.00,23.09,26.89,30.01,13.88,41.10,1017.73,2034.97,3518.08,3059.32,3502.00,600.03,596.66,17.38,0000 0000 0000 0000 000000
2017-09-26 05:15:41,0.00,0.13,0.00,23.13,26.90,30.02,13.86,41.07,1017.95,2034.97,3517.99,3059.02,3501.98,600.00,596.71,17.43,0000 0000 0000 0000 000000
2017-09-26 05:20:42,0.00,0.13,0.00,23.15,26.90,30.03,13.84,41.17,1018.04,2034.93,3517.95,3059.00,3501.79,600.08,596.65,17.48,0000 0000 0000 0000 000000
2017-09-26 05:25:43,0.01,0.13,0.00,23.33,26.92,30.05,13.85,41.16,1018.07,2034.92,3517.93,3059.00,3501.36,600.14,596.37,17.53,0000 0000 0000 0000 000000
2017-09-26 05:30:44,-0.01,0.13,0.00,23.36,26.92,30.04,13.95,41.16,1018.08,2034.79,3517.77,3059.00,3501.11,600.50,596.75,17.58,0000 0000 0000 0000 000000
2017-09-26 05:35:45,-0.01,0.13,0.00,23.45,26.94,29.99,13.82,41.02,1018.08,2034.51,3517.32,3058.99,3501.01,599.83,595.76,17.63,0000 0000 0000 0000 000000
2017-09-26 05:40:46,-0.03,0.13,0.00,23.33,26.95,29.95,13.81,41.15,1018.08,2034.16,3517.03,3058.86,3501.00,599.84,596.05,17.68,0000 0000 0000 0000 000000
2017-09-26 05:45:48,0.00,0.13,0.00,23.04,26.95,29.94,13.97,41.08,1018.08,2034.20,3517.00,3058.87,3501.00,600.07,596.85,17.73,0000 0000 0000 0000 000000
2017-09-26 05:50:49,-0.01,0.13,0.00,22.95,26.94,29.97,13.93,41.45,1018.08,2034.13,3517.00,3058.81,3501.00,600.63,597.63,17.78,0000 0000 0000 0000 000000
2017-09-26 05:55:50,-0.00,0.13,0.00,22.87,26.93,29.99,13.85,41.60,1018.09,2034.06,3516.99,3058.56,3500.98,599.66,596.86,17.83,0000 0000 0000 0000 000000
2017-09-26 06:00:51,0.00,0.13,0.00,22.99,26.92,30.00,13.96,41.22,1018.10,2034.07,3516.99,3058.50,3500.96,600.29,597.09,17.88,0000 0000 0000 0000 000000
2017-09-26 06:05:52,0.01,0.13,0.00,23.11,26.92,30.02,13.92,41.27,1018.17,2034.08,3516.97,3058.18,3500.88,600.28,597.03,17.93,0000 0000 0000 0000 000000
2017-09-26 06:10:53,0.01,0.13,0.00,23.17,26.92,30.03,13.84,41.25,1018.35,2034.04,3516.87,3058.03,3500.41,599.90,596.61,17.98,0000 0000 0000 0000 000000
2017-09-26 06:15:54,0.01,0.13,0.00,23.25,26.94,30.03,13.90,41.17,1018.42,2034.02,3516.36,3058.01,3500.07,599.86,596.44,18.03,0000 0000 0000 0000 000000
2017-09-26 06:20:55,0.00,0.13,0.00,23.38,26.95,30.01,13.92,41.19,1018.55,2034.01,3516.04,3058.00,3500.00,600.28,596.61,18.08,0000 0000 0000 0000 000000
2017-09-26 06:25:56,0.00,0.13,0.00,23.36,26.95,29.98,13.84,41.13,1018.57,2034.01,3516.00,3057.98,3500.00,599.92,596.45,18.13,0000 0000 0000 0000 000000
2017-09-26 06:30:58,0.00,0.13,0.00,23.20,26.95,29.92,13.87,41.20,1018.57,2034.01,3515.85,3057.87,3499.94,600.15,596.87,18.18,0000 0000 0000 0000 000000
2017-09-26 06:35:59,0.03,0.13,0.00,23.01,26.95,29.92,13.93,41.46,1018.57,2034.01,3515.15,3057.42,3499.56,600.20,597.38,18.23,0000 0000 0000 0000 000000
2017-09-26 06:41:01,-0.00,0.13,0.00,22.89,26.95,29.95,13.93,41.22,1018.57,2034.03,3515.08,3057.39,3499.56,599.84,597.37,18.28,0000 0000 0000 0000 000000
2017-09-26 06:46:02,0.01,0.13,0.00,22.79,26.94,30.00,13.96,41.23,1018.59,2034.02,3515.01,3057.13,3499.10,600.19,597.81,18.33,0000 0000 0000 0000 000000
2017-09-26 06:51:03,0.00,0.13,0.00,22.80,26.93,30.00,13.93,41.23,1018.59,2034.02,3514.98,3057.01,3499.01,599.79,597.48,18.38,0000 0000 0000 0000 000000
2017-09-26 06:56:04,0.01,0.13,0.00,22.94,26.92,30.01,13.91,41.12,1018.60,2034.02,3514.66,3057.00,3499.00,599.64,597.01,18.43,0000 0000 0000 0000 000000
2017-09-26 07:01:05,0.25,0.14,0.00,23.01,26.92,30.04,13.91,41.15,1018.67,2034.02,3510.97,3054.62,3496.25,599.80,597.02,18.48,0000 0000 0000 0000 000000
2017-09-26 07:06:07,1.27,0.18,0.00,23.04,26.93,30.05,13.92,41.11,1018.75,2034.02,3488.25,3038.67,3478.46,599.93,597.08,18.53,0000 0000 0000 0000 000000
2017-09-26 07:11:08,1.45,0.26,0.00,23.09,26.94,30.06,13.93,41.17,1018.96,2034.00,3456.00,3016.09,3453.27,600.19,597.42,18.58,0000 0000 0000 0000 000000
2017-09-26 07:16:10,1.09,0.32,0.00,23.23,26.95,30.06,13.84,41.12,1018.99,2034.00,3430.84,2998.40,3433.18,599.81,596.83,18.63,0000 0000 0000 0000 000000
2017-09-26 07:21:11,1.04,0.37,0.00,23.38,26.95,30.06,13.83,41.05,1018.92,2034.00,3408.19,2982.77,3415.35,599.72,596.30,18.68,0000 0000 0000 0000 000000
2017-09-26 07:26:12,1.21,0.42,0.00,23.33,26.97,29.98,13.94,41.01,1018.98,2033.98,3384.18,2966.33,3396.65,600.37,597.12,18.73,0000 0000 0000 0000 000000
2017-09-26 07:31:14,0.83,0.48,0.80,23.20,26.97,29.97,13.95,41.02,1019.05,2033.98,3361.89,2950.87,3379.24,600.30,597.34,18.78,0000 0000 0000 0000 000000
2017-09-26 07:36:15,0.01,0.49,1.00,22.93,26.97,29.92,13.94,41.16,1019.06,2033.98,3359.77,2949.10,3377.75,600.08,597.62,18.83,0000 0000 0000 0000 000000
2017-09-26 07:41:17,0.20,0.50,1.00,22.66,26.95,29.91,13.95,41.18,1019.06,2033.99,3356.85,2947.41,3375.51,599.95,598.06,18.88,0000 0000 0000 0000 000000
2017-09-26 07:46:18,0.43,0.52,1.00,22.51,26.95,29.96,13.96,41.12,1019.06,2033.98,3348.37,2941.78,3368.71,599.79,598.25,18.93,0000 0000 0000 0000 000000
2017-09-26 07:51:19,0.35,0.54,1.00,22.40,26.95,30.00,14.00,41.27,1019.07,2033.99,3339.73,2936.04,3362.02,599.83,598.39,18.98,0000 0000 0000 0000 000000
2017-09-26 07:56:20,0.06,0.54,1.00,22.63,26.95,30.03,13.88,41.14,1019.07,2033.99,3337.42,2934.37,3360.11,599.99,598.07,19.03,0000 0000 0000 0000 000000
2017-09-26 08:01:21,0.03,0.55,0.17,22.96,26.95,30.03,13.94,41.11,1019.07,2033.99,3336.65,2933.90,3359.49,600.10,597.74,19.08,0000 0000 0000 0000 000000
2017-09-26 08:06:23,0.04,0.55,0.00,23.20,26.96,30.05,13.91,41.12,1019.08,2033.99,3335.63,2933.08,3358.76,599.97,597.05,19.13,0000 0000 0000 0000 000000
2017-09-26 08:11:24,0.01,0.55,0.00,23.30,26.97,30.04,13.95,41.17,1019.14,2033.99,3335.02,2932.89,3358.04,600.17,597.01,19.18,0000 0000 0000 0000 000000
2017-09-26 08:16:25,0.02,0.55,0.00,23.33,26.97,29.97,13.84,41.02,1019.25,2033.98,3334.95,2932.19,3357.99,599.98,596.91,19.23,0000 0000 0000 0000 000000
2017-09-26 08:21:27,0.01,0.55,0.00,23.10,26.97,29.95,13.89,41.17,1019.36,2033.99,3334.43,2932.02,3357.79,599.73,597.22,19.28,0000 0000 0000 0000 000000
2017-09-26 08:26:28,0.10,0.56,0.00,22.81,26.97,29.91,13.85,41.28,1019.37,2033.98,3332.53,2931.06,3356.35,600.08,598.12,19.33,0000 0000 0000 0000 000000
2017-09-26 08:31:29,0.10,0.56,0.00,22.73,26.97,29.93,13.97,41.39,1019.38,2033.96,3330.26,2929.56,3354.58,600.08,598.33,19.38,0000 0000 0000 0000 000000
2017-09-26 08:36:30,0.11,0.57,0.00,22.71,26.95,29.97,13.98,41.21,1019.36,2033.97,3327.73,2927.96,3352.73,599.88,598.01,19.43,0000 0000 0000 0000 000000
2017-09-26 08:41:32,0.15,0.57,0.00,22.77,26.95,29.98,13.90,41.24,1019.40,2033.98,3324.68,2925.88,3350.35,599.90,598.01,19.48,0000 0000 0000 0000 000000
2017-09-26 08:46:33,0.30,0.58,0.00,22.88,26.95,30.01,13.88,41.17,1019.50,2033.97,3319.08,2922.25,3346.18,599.68,597.66,19.53,0000 0000 0000 0000 000000
2017-09-26 08:51:34,0.47,0.61,0.00,23.15,26.96,30.01,13.98,41.24,1019.54,2033.98,3309.84,2916.12,3338.99,600.45,597.83,19.58,0000 0000 0000 0000 000000
2017-09-26 08:56:35,0.35,0.63,0.00,23.27,26.97,30.00,13.90,41.22,1019.55,2033.95,3301.59,2910.53,3332.49,599.59,596.80,19.63,0000 0000 0000 0000 000000
2017-09-26 09:01:36,0.17,0.64,0.00,23.18,26.97,29.95,13.94,41.22,1019.55,2033.85,3296.88,2907.34,3328.81,600.15,597.43,19.68,0000 0000 0000 0000 000000
2017-09-26 09:06:37,0.10,0.65,0.00,23.00,26.97,29.95,13.93,41.23,1019.55,2033.63,3293.80,2905.31,3326.53,600.14,597.86,19.73,0000 0000 0000 0000 000000
2017-09-26 09:11:39,0.06,0.65,0.00,22.85,26.97,29.97,13.89,41.30,1019.55,2033.42,3291.89,2904.06,3325.02,599.83,597.90,19.78,0000 0000 0000 0000 000000
2017-09-26 09:16:40,0.09,0.65,0.00,22.84,26.97,30.00,13.94,41.20,1019.55,2033.44,3290.18,2902.94,3323.68,599.83,597.85,19.83,0000 0000 0000 0000 000000
2017-09-26 09:21:41,0.08,0.66,0.00,22.90,26.97,30.01,13.94,41.32,1019.55,2033.28,3287.99,2901.53,3321.94,599.99,598.05,19.88,0000 0000 0000 0000 000000
2017-09-26 09:26:43,0.01,0.66,0.00,22.84,26.97,30.03,13.94,41.32,1019.56,2033.07,3287.01,2900.98,3321.02,600.03,598.10,19.93,0000 0000 0000 0000 000000
2017-09-26 09:31:44,0.00,0.66,0.00,22.97,26.97,30.04,13.90,41.38,1019.57,2033.05,3286.99,2900.97,3321.00,600.09,597.94,19.98,0000 0000 0000 0000 000000
2017-09-26 09:36:45,0.00,0.66,0.00,23.06,26.97,30.04,13.96,41.58,1019.56,2033.02,3286.99,2900.97,3321.00,600.16,597.81,20.03,0000 0000 0000 0000 000000
2017-09-26 09:41:47,-0.00,0.66,0.00,23.00,26.97,30.05,13.96,41.55,1019.58,2033.03,3286.99,2900.97,3321.00,599.97,597.70,20.08,0000 0000 0000 0000 000000
2017-09-26 09:46:48,0.00,0.66,0.00,23.00,26.97,30.07,13.90,41.49,1019.58,2033.03,3286.99,2900.98,3321.00,599.86,597.66,20.13,0000 0000 0000 0000 000000
2017-09-26 09:51:50,0.00,0.66,0.00,22.94,26.97,30.07,13.97,41.34,1019.57,2033.00,3286.99,2900.98,3321.00,600.05,598.11,20.18,0000 0000 0000 0000 000000
2017-09-26 09:56:51,0.00,0.66,0.00,23.09,26.98,30.07,14.00,41.33,1019.58,2033.00,3286.99,2900.97,3321.00,600.43,598.15,20.23,0000 0000 0000 0000 000000
2017-09-26 10:01:52,0.00,0.66,0.00,23.20,27.00,30.06,13.87,41.21,1019.57,2033.00,3286.99,2900.97,3321.00,600.07,597.45,20.28,0000 0000 0000 0000 000000
2017-09-26 10:06:53,0.00,0.66,0.00,23.33,27.00,30.01,13.85,41.27,1019.56,2033.00,3287.01,2900.98,3321.00,599.71,596.81,20.33,0000 0000 0000 0000 000000
2017-09-26 10:11:54,0.00,0.66,0.00,23.25,27.00,29.92,13.93,41.17,1019.56,2033.00,3287.01,2900.97,3321.00,599.81,597.06,20.38,0000 0000 0000 0000 000000
2017-09-26 10:16:55,0.00,0.66,0.00,23.05,27.00,29.87,13.99,41.29,1019.55,2033.00,3287.01,2900.99,3321.00,600.16,597.81,20.43,0000 0000 0000 0000 000000
2017-09-26 10:21:57,0.00,0.66,0.00,22.78,27.00,29.88,13.92,41.91,1019.55,2033.00,3287.00,2900.99,3321.00,600.05,598.17,20.49,0000 0000 0000 0000 000000
2017-09-26 10:26:58,0.00,0.66,0.00,22.77,26.99,29.93,13.94,41.89,1019.55,2033.00,3287.01,2900.98,3321.00,599.94,598.17,20.54,0000 0000 0000 0000 000000
2017-09-26 10:31:59,0.00,0.66,0.00,22.73,26.97,29.97,13.91,41.66,1019.55,2033.01,3287.01,2900.98,3321.00,599.95,598.46,20.59,0000 0000 0000 0000 000000
2017-09-26 10:37:01,0.00,0.66,0.00,22.79,26.97,30.03,13.96,41.69,1019.56,2033.00,3287.01,2900.98,3321.00,599.77,598.04,20.64,0000 0000 0000 0000 000000
2017-09-26 10:42:02,0.00,0.66,0.00,22.87,26.97,30.04,13.93,41.63,1019.56,2033.00,3287.04,2900.99,3321.00,599.80,597.82,20.69,0000 0000 0000 0000 000000
2017-09-26 10:47:03,0.00,0.66,0.00,22.93,26.97,30.06,13.97,41.46,1019.55,2033.00,3287.15,2900.99,3321.01,600.07,598.02,20.74,0000 0000 0000 0000 000000
2017-09-26 10:52:04,-0.00,0.66,0.00,22.83,26.97,30.07,13.94,41.36,1019.55,2033.00,3287.29,2900.99,3321.02,599.73,597.88,20.79,0000 0000 0000 0000 000000
2017-09-26 10:57:06,0.00,0.66,0.00,22.89,26.97,30.09,14.00,41.24,1019.55,2033.00,3287.23,2900.99,3321.01,600.17,598.10,20.84,0000 0000 0000 0000 000000
2017-09-26 11:02:07,-0.01,0.66,0.00,22.93,26.97,30.09,13.96,41.17,1019.55,2033.00,3287.66,2900.99,3321.04,600.00,597.90,20.89,0000 0000 0000 0000 000000
2017-09-26 11:07:08,0.00,0.66,0.00,22.90,26.97,30.09,13.85,41.19,1019.55,2033.00,3287.60,2901.00,3321.03,600.00,598.03,20.94,0000 0000 0000 0000 000000
2017-09-26 11:12:09,-0.00,0.66,0.00,22.86,26.97,30.11,13.94,41.40,1019.55,2033.00,3287.49,2901.00,3321.02,600.36,598.35,20.99,0000 0000 0000 0000 000000
2017-09-26 11:17:11,-0.00,0.66,0.00,22.86,26.97,30.10,13.92,41.38,1019.55,2033.00,3287.80,2901.01,3321.04,600.00,598.14,21.04,0000 0000 0000 0000 000000
2017-09-26 11:22:12,-0.00,0.66,0.00,22.90,26.97,30.12,13.96,41.50,1019.55,2033.00,3287.90,2901.02,3321.07,600.04,597.93,21.09,0000 0000 0000 0000 000000
2017-09-26 11:27:13,0.00,0.66,0.00,22.98,26.97,30.12,13.92,41.27,1019.55,2033.00,3287.96,2901.03,3321.14,600.06,597.84,21.14,0000 0000 0000 0000 000000
2017-09-26 11:32:14,0.00,0.66,0.00,22.98,26.97,30.14,13.93,41.83,1019.52,2033.00,3287.96,2901.02,3321.07,600.26,598.10,21.19,0000 0000 0000 0000 000000
2017-09-26 11:37:16,0.00,0.66,0.00,22.92,26.97,30.15,13.95,41.69,1019.46,2033.00,3287.88,2901.02,3321.04,599.69,597.54,21.24,0000 0000 0000 0000 000000
2017-09-26 11:42:17,0.00,0.66,0.00,22.92,26.98,30.15,13.90,41.52,1019.51,2033.00,3287.75,2901.01,3321.03,599.83,597.73,21.29,0000 0000 0000 0000 000000
2017-09-26 11:47:18,-0.00,0.66,0.00,23.01,26.99,30.16,13.93,41.48,1019.53,2032.99,3287.91,2901.02,3321.04,599.96,597.81,21.34,0000 0000 0000 0000 000000
2017-09-26 11:52:20,0.00,0.66,0.00,23.02,27.00,30.17,13.91,41.41,1019.55,2032.99,3287.92,2901.01,3321.02,599.75,597.61,21.39,0000 0000 0000 0000 000000
2017-09-26 11:57:21,0.00,0.66,0.00,22.86,27.00,30.16,13.99,41.58,1019.55,2032.98,3287.91,2901.00,3321.01,600.20,598.11,21.44,0000 0000 0000 0000 000000
2017-09-26 12:02:22,0.00,0.66,0.00,22.78,27.00,30.13,13.94,41.67,1019.55,2032.99,3287.94,2901.02,3321.02,600.18,598.16,21.49,0000 0000 0000 0000 000000
2017-09-26 12:07:23,0.00,0.66,0.00,22.78,26.99,30.15,14.01,41.70,1019.55,2032.98,3287.83,2901.01,3321.00,600.10,598.31,21.54,0000 0000 0000 0000 000000
2017-09-26 12:12:24,0.00,0.66,0.00,22.80,26.99,30.15,13.90,41.71,1019.55,2032.98,3287.90,2901.01,3321.00,599.84,597.84,21.59,0000 0000 0000 0000 000000
2017-09-26 12:17:25,-0.00,0.66,0.00,22.79,26.98,30.16,13.87,41.60,1019.53,2032.96,3287.90,2901.02,3321.01,599.69,597.87,21.64,0000 0000 0000 0000 000000
2017-09-26 12:22:27,0.00,0.66,0.00,22.67,26.97,30.12,13.96,41.69,1019.52,2032.97,3287.93,2901.01,3321.01,599.98,598.37,21.69,0000 0000 0000 0000 000000
2017-09-26 12:27:28,0.00,0.66,0.00,22.61,26.97,30.14,13.93,41.86,1019.40,2032.97,3287.96,2901.05,3321.01,600.16,598.52,21.74,0000 0000 0000 0000 000000
2017-09-26 12:32:29,0.00,0.66,0.00,22.71,26.97,30.14,13.98,41.68,1019.24,2032.99,3287.97,2901.07,3321.03,600.14,598.29,21.79,0000 0000 0000 0000 000000
2017-09-26 12:37:31,-0.00,0.66,0.00,22.64,26.97,30.18,13.96,41.92,1019.39,2032.98,3287.96,2901.07,3321.05,600.30,598.62,21.84,0000 0000 0000 0000 000000
2017-09-26 12:42:32,-0.00,0.66,0.00,22.67,26.97,30.13,13.94,41.64,1019.48,2032.97,3287.96,2901.06,3321.05,599.95,598.33,21.89,0000 0000 0000 0000 000000
2017-09-26 12:47:33,0.00,0.66,0.00,22.56,26.97,30.09,13.97,41.92,1019.53,2032.98,3287.98,2901.09,3321.14,599.98,598.60,21.94,0000 0000 0000 0000 000000
2017-09-26 12:52:34,0.00,0.66,0.00,22.67,26.96,30.12,13.92,41.83,1019.54,2032.99,3287.95,2901.06,3321.07,600.47,598.87,21.99,0000 0000 0000 0000 000000
2017-09-26 12:57:36,0.00,0.66,0.00,22.63,26.95,30.15,13.95,42.02,1019.52,2032.99,3287.96,2901.08,3321.11,600.10,598.48,22.04,0000 0000 0000 0000 000000